Boulder Muni, Boulder, CO, CO

10:52 AM MDT on October 14, 2019 (GMT -0600)
Boulder Muni, Boulder, CO

Weather History for KBDU - August, 2019

Change the Weather History Date:

Monday, August 26, 2019

  Actual Average Record
Temperature  
Mean Temperature 72 °F -  
Max Temperature 82 °F - 93 °F (2018)
Min Temperature 61 °F - 55 °F (2014)
Degree Days  
Heating Degree Days 0    
Month to date heating degree days 0  
Cooling Degree Days 7    
Month to date cooling degree days 259  
Growing Degree Days 21 (Base 50)    
Moisture  
Dew Point 44 °F    
Average Humidity 38    
Maximum Humidity 60    
Minimum Humidity 16    
Precipitation  
Precipitation 0.00 in - 0.10 in (2013)
Snow  
Snow 0.00 in - - ()
Snow Depth 0.00 in    
Sea Level Pressure  
Sea Level Pressure 30.10 in    
Wind  
Wind Speed 4 mph (ENE)    
Max Wind Speed 8 mph    
Max Gust Speed 16 mph    
Visibility 10 miles    
Events      
T = Trace of Precipitation, MM = Missing Value Source: NWS Daily Summary

Daily Weather History Graph

Daily Weather History Graph

Search for Another Location

Airport or City:

Astronomy

Aug. 26, 2019 Rise Set
Actual Time 6:22 AM MDT 7:41 PM MDT
Civil Twilight 5:54 AM MDT 8:10 PM MDT
Nautical Twilight 5:20 AM MDT 8:43 PM MDT
Astronomical Twilight 4:45 AM MDT 9:19 PM MDT
Moon 1:50 AM MDT (8/26) 5:07 PM MDT (8/26)
Length of Visible Light 14h 15m
Length of Day
13h 19m
Waning Crescent, 19% of the Moon is Illuminated
Aug 26
Waning Crescent
Aug 30
New
Sep 5
First Quarter
Sep 13
Full
Sep 21
Last Quarter

Hourly Weather History & Observations

Time (MDT) Temp. Dew Point Humidity Pressure Visibility Wind Dir Wind Speed Gust Speed Precip Events Conditions
12:12 AM 82.4 °F 32.0 °F 16% 29.91 in 10.0 mi West 9.2 mph - N/A   Clear
12:30 AM 80.6 °F 32.0 °F 17% 29.91 in 10.0 mi WNW 6.9 mph - N/A   Clear
12:48 AM 82.4 °F 32.0 °F 16% 29.92 in 10.0 mi SSW 3.5 mph - N/A   Clear
1:30 AM 71.6 °F 33.8 °F 25% 29.93 in 10.0 mi Calm Calm - N/A   Clear
1:48 AM 71.6 °F 33.8 °F 25% 29.93 in 10.0 mi Calm Calm - N/A   Clear
2:12 AM 69.8 °F 37.4 °F 31% 29.94 in 10.0 mi Calm Calm - N/A   Clear
2:30 AM 71.6 °F 35.6 °F 27% 29.94 in 10.0 mi Calm Calm - N/A   Clear
2:48 AM 71.6 °F 35.6 °F 27% 29.95 in 10.0 mi Calm Calm - N/A   Clear
3:30 AM 64.4 °F 46.4 °F 52% 30.01 in 10.0 mi NNE 11.5 mph - N/A   Clear
3:48 AM 62.6 °F 48.2 °F 59% 30.04 in 10.0 mi NNE 8.1 mph - N/A   Clear
4:12 AM 62.6 °F 46.4 °F 55% 30.06 in 10.0 mi NE 3.5 mph - N/A   Clear
4:30 AM 62.6 °F 46.4 °F 55% 30.07 in 10.0 mi NNE 6.9 mph - N/A   Clear
4:48 AM 60.8 °F 46.4 °F 59% 30.08 in 10.0 mi North 4.6 mph - N/A   Clear
5:12 AM 60.8 °F 46.4 °F 59% 30.10 in 10.0 mi Calm Calm - N/A   Clear
5:30 AM 60.8 °F 46.4 °F 59% 30.10 in 10.0 mi Calm Calm - N/A   Clear
5:49 AM 60.8 °F 46.4 °F 59% 30.11 in 10.0 mi Calm Calm - N/A   Clear
6:12 AM 60.8 °F 46.4 °F 59% 30.11 in 10.0 mi Calm Calm - N/A   Clear
6:30 AM 60.8 °F 46.4 °F 59% 30.12 in 10.0 mi Calm Calm - N/A   Clear
6:48 AM 60.8 °F 46.4 °F 59% 30.13 in 10.0 mi Calm Calm - N/A   Clear
7:12 AM 60.8 °F 46.4 °F 59% 30.13 in 10.0 mi Calm Calm - N/A   Scattered Clouds
7:29 AM 62.6 °F 46.4 °F 55% 30.13 in 10.0 mi Calm Calm - N/A   Scattered Clouds
7:53 AM 62.6 °F 46.4 °F 55% 30.13 in 10.0 mi SE 3.5 mph - N/A   Scattered Clouds
8:12 AM 64.4 °F 46.4 °F 52% 30.14 in 10.0 mi SE 3.5 mph - N/A   Scattered Clouds
8:30 AM 64.4 °F 46.4 °F 52% 30.14 in 10.0 mi SSE 4.6 mph - N/A   Scattered Clouds
8:48 AM 64.4 °F 44.6 °F 49% 30.14 in 10.0 mi SE 5.8 mph - N/A   Clear
9:11 AM 68.0 °F 44.6 °F 43% 30.13 in 10.0 mi SE 4.6 mph - N/A   Clear
9:29 AM 68.0 °F 44.6 °F 43% 30.13 in 10.0 mi ESE 4.6 mph - N/A   Clear
9:53 AM 68.0 °F 42.8 °F 40% 30.12 in 10.0 mi ESE 5.8 mph - N/A   Clear
10:12 AM 69.8 °F 42.8 °F 38% 30.12 in 10.0 mi SE 4.6 mph - N/A   Clear
10:30 AM 69.8 °F 42.8 °F 38% 30.13 in 10.0 mi East 3.5 mph - N/A   Clear
10:53 AM 69.8 °F 42.8 °F 38% 30.13 in 10.0 mi East 4.6 mph - N/A   Clear
11:12 AM 69.8 °F 42.8 °F 38% 30.13 in 10.0 mi ENE 5.8 mph 16.1 mph N/A   Clear
11:29 AM 69.8 °F 44.6 °F 40% 30.13 in 10.0 mi North 5.8 mph - N/A   Scattered Clouds
11:52 AM 71.6 °F 42.8 °F 35% 30.12 in 10.0 mi NE 6.9 mph - N/A   Clear
12:12 PM 71.6 °F 44.6 °F 38% 30.12 in 10.0 mi East 4.6 mph - N/A   Clear
12:30 PM 73.4 °F 44.6 °F 36% 30.11 in 10.0 mi ENE 5.8 mph - N/A   Clear
12:48 PM 71.6 °F 44.6 °F 38% 30.11 in 10.0 mi SE 4.6 mph - N/A   Clear
1:12 PM 73.4 °F 44.6 °F 36% 30.10 in 10.0 mi ESE 6.9 mph - N/A   Clear
1:30 PM 73.4 °F 44.6 °F 36% 30.10 in 10.0 mi ESE 5.8 mph - N/A   Clear
1:48 PM 73.4 °F 44.6 °F 36% 30.09 in 10.0 mi ESE 6.9 mph - N/A   Scattered Clouds
2:12 PM 73.4 °F 44.6 °F 36% 30.09 in 10.0 mi ESE 3.5 mph - N/A   Clear
2:30 PM 77.0 °F 44.6 °F 32% 30.08 in 10.0 mi ENE 6.9 mph - N/A   Clear
2:48 PM 75.2 °F 44.6 °F 34% 30.08 in 7.0 mi ENE 4.6 mph - N/A   Clear
3:11 PM 75.2 °F 44.6 °F 34% 30.08 in 10.0 mi NE 8.1 mph - N/A   Clear
3:28 PM 77.0 °F 44.6 °F 32% 30.08 in 10.0 mi NNE 9.2 mph - N/A   Clear
3:52 PM 77.0 °F 44.6 °F 32% 30.08 in 10.0 mi NE 4.6 mph - N/A   Clear
4:12 PM 77.0 °F 44.6 °F 32% 30.08 in 10.0 mi NE 6.9 mph - N/A   Clear
4:29 PM 77.0 °F 44.6 °F 32% 30.08 in 10.0 mi Calm Calm - N/A   Clear
4:53 PM 77.0 °F 44.6 °F 32% 30.08 in 10.0 mi ESE 4.6 mph - N/A   Clear
5:12 PM 77.0 °F 44.6 °F 32% 30.08 in 10.0 mi ENE 5.8 mph - N/A   Clear
5:30 PM 77.0 °F 44.6 °F 32% 30.08 in 10.0 mi Calm Calm - N/A   Clear
5:48 PM 77.0 °F 44.6 °F 32% 30.08 in 10.0 mi NE 5.8 mph - N/A   Clear
6:08 PM 75.2 °F 44.6 °F 34% 30.09 in 10.0 mi ENE 5.8 mph - N/A   Clear
6:32 PM 75.2 °F 44.6 °F 34% 30.10 in 10.0 mi NE 3.5 mph - N/A   Clear
6:50 PM 75.2 °F 44.6 °F 34% 30.10 in 10.0 mi NE 4.6 mph - N/A   Clear
7:12 PM 73.4 °F 44.6 °F 36% 30.11 in 10.0 mi NNE 3.5 mph - N/A   Clear
7:30 PM 71.6 °F 44.6 °F 38% 30.12 in 10.0 mi Calm Calm - N/A   Clear
7:48 PM 71.6 °F 44.6 °F 38% 30.13 in 10.0 mi Calm Calm - N/A   Clear
8:12 PM 69.8 °F 44.6 °F 40% 30.14 in 10.0 mi Calm Calm - N/A   Clear
8:30 PM 68.0 °F 46.4 °F 46% 30.15 in 10.0 mi NW 3.5 mph - N/A   Clear
8:48 PM 68.0 °F 46.4 °F 46% 30.17 in 10.0 mi Calm Calm - N/A   Clear
9:12 PM 68.0 °F 46.4 °F 46% 30.18 in 10.0 mi Calm Calm - N/A   Clear
9:30 PM 68.0 °F 44.6 °F 43% 30.18 in 10.0 mi Calm Calm - N/A   Mostly Cloudy
9:48 PM 66.2 °F 44.6 °F 46% 30.20 in 10.0 mi Calm Calm - N/A   Overcast
10:12 PM 64.4 °F 46.4 °F 52% 30.20 in 10.0 mi North 4.6 mph - N/A   Overcast
10:30 PM 64.4 °F 46.4 °F 52% 30.21 in 10.0 mi North 3.5 mph - N/A   Scattered Clouds
10:48 PM 64.4 °F 46.4 °F 52% 30.21 in 10.0 mi North 5.8 mph - N/A   Scattered Clouds
11:12 PM 64.4 °F 44.6 °F 49% 30.21 in 10.0 mi ENE 3.5 mph - N/A   Overcast
11:30 PM 64.4 °F 44.6 °F 49% 30.21 in 10.0 mi ENE 4.6 mph - N/A   Overcast
11:53 PM 64.4 °F 46.4 °F 52% 30.20 in 10.0 mi ENE 6.9 mph - N/A   Overcast